Back to catalog

COSMOS 2251 DEB

AliveLEO
NORAD 38067·DEBRIS·🇷🇺 Russia

Launched Jun 16, 1993 from Plesetsk Cosmodrome

Loading…

Next Passes (next 24 hours)

TLE

AgingSource: Space-Track

Epoch: Sep 12, 2026, 07:02 UTC

1 38067U 93036BRZ 26255.29353069  .00000741  00000-0  14939-3 0  9993
2 38067  74.0138 110.5454 0070556 191.0158 293.3980 14.61867433665528

Track COSMOS 2251 DEB in real time with AllMySat

Download on the App Store